[[{"header":{"parameterUnit":"m.s-1","parameterCategory":1,"la1":30.2991,"la2":30.254,"lo1":-89.0895,"lo2":-89.0444,"dy":0.0017,"dx":0.0017,"nx":28,"ny":28,"refTime":"2024-02-23T09:00:00:Z","depth":0,"parameterNumber":2,"parameterNumberName":"U-component_of_WINDS"},"data":[0,0,0,0,0,0,0,0,0,0,0,0,0,0,0,0,0,0,0,0,0,0,0,0,0,0,0,0,0,0,0,0,0,0,0,0,0,0,0,0,0,0,0,0,0,0,0,0,0,0,0,0,0,0,0,0,0,0,4.2391,4.2391,0,4.2432,4.2432,4.2432,4.2419,4.2418,4.2417,4.2416,4.2458,4.2459,4.2461,0,0,0,0,0,0,0,0,0,0,0,0,0,4.2306,4.2307,4.2391,4.2391,4.2392,4.2431,4.2432,4.2433,4.2419,4.2418,4.2417,4.2416,4.2457,4.2459,4.2462,0,0,0,0,0,0,0,0,0,0,0,0,0,4.2344,4.2308,4.2391,4.239,4.239,4.2431,4.2432,4.2433,4.2419,4.2418,4.2416,4.2415,4.2456,4.2459,4.2462,4.2506,0,0,4.2471,4.2472,0,0,0,0,0,0,0,0,4.2342,4.2347,4.239,4.239,4.239,4.2419,4.2417,4.2457,4.2419,4.2408,4.2416,4.2414,4.2446,4.2449,4.246,4.2508,4.251,4.2471,4.2473,4.2474,4.2475,0,0,0,0,0,0,0,4.2339,4.2345,4.2407,4.239,4.2391,4.2389,4.2393,4.2425,4.2434,4.2409,4.2408,4.2413,4.2446,4.2457,4.2461,4.2511,4.2471,4.2473,4.2475,4.2476,4.2604,4.2606,0,0,0,0,0,0,4.2336,4.2343,4.2406,4.2408,4.2362,4.2391,4.2396,4.2411,4.2433,4.2436,4.2414,4.2412,4.2453,4.2457,4.2462,4.252,4.2474,4.2477,4.2478,4.2603,4.2605,4.2607,0,0,0,0,0,0,4.2334,4.2342,4.2404,4.2376,4.2383,4.2394,4.2411,4.2412,4.2424,4.2437,4.2439,4.2424,4.2452,4.2458,4.2497,4.2521,4.2478,4.2481,4.2601,4.2603,4.2606,4.2633,0,0,0,0,0,0,4.2332,4.2341,4.2357,4.2376,4.2385,4.2437,4.2413,4.2414,4.2429,4.2427,4.2447,4.2449,4.2451,4.2493,4.25,4.2524,4.2483,4.2599,4.2602,4.2605,4.263,4.2637,4.2642,0,0,0,0,0,4.2329,4.2362,4.2358,4.2365,4.2405,4.2438,4.2443,4.2445,4.2431,4.2448,4.2458,4.2448,4.2517,4.2497,4.2505,4.253,4.2597,4.2601,4.2605,4.2628,4.2635,4.2642,0,0,0,0,0,0,4.2343,4.2364,4.236,4.2399,4.2418,4.2436,4.2457,4.2452,4.2474,4.2472,4.2473,4.2478,4.2519,4.2528,4.2505,4.2578,4.2555,4.2561,4.257,4.2578,4.2583,4.2581,4.2485,0,0,0,0,0,4.2352,4.2376,4.2393,4.2427,4.2436,4.2445,4.246,4.246,4.2479,4.2486,4.2498,4.2517,4.2544,4.2561,4.2585,4.2632,4.2639,4.2654,4.266,4.2664,4.2669,4.27,4.2709,4.2619,4.2619,4.2619,0,0,4.2368,4.2382,4.2397,4.243,4.2444,4.2472,4.2452,4.248,4.2502,4.249,4.2529,4.2539,4.2561,4.2605,4.2625,4.2614,4.2696,4.2669,4.2673,4.2675,4.2705,4.2713,4.2721,4.2621,4.2621,4.2621,0,0,4.2413,4.2425,4.2456,4.2472,4.2494,4.2501,4.2509,4.2529,4.2536,4.2575,4.2569,4.2595,4.2639,4.2656,4.2671,4.2729,4.2723,4.2737,4.2767,4.2797,4.2804,4.281,4.2835,4.2843,4.2742,4.2742,4.2742,0,4.243,4.2471,4.2473,4.2504,4.2521,4.2514,4.2548,4.2563,4.2592,4.2605,4.2592,4.2651,4.2665,4.2716,4.2731,4.2741,4.2753,4.2735,4.2803,4.2809,4.2815,4.2839,4.2848,4.2743,4.2743,4.2743,4.2743,0,4.2494,4.2523,4.2546,4.2576,4.2595,4.2627,4.2637,4.2656,4.2657,4.2666,4.2709,4.2725,4.2756,4.2768,4.2767,4.282,4.2814,4.2802,4.2779,4.2826,4.2848,4.2857,4.2746,4.2745,4.2745,4.2744,0,0,4.2546,4.2581,4.259,4.2606,4.2633,4.2656,4.269,4.2721,4.274,4.2761,4.2792,4.2832,4.2824,4.284,4.2842,4.2868,4.2919,4.2854,4.2854,4.2868,4.2984,4.2995,4.3005,4.2915,4.2917,4.2918,4.2984,0,4.2595,4.2655,4.2661,4.2715,4.2745,4.2741,4.2772,4.2793,4.2803,4.2831,4.2843,4.2873,4.2857,4.2868,4.2893,4.2907,4.2942,4.2902,4.2947,4.2948,4.2943,4.3016,4.3026,4.3087,4.2992,4.2994,4.2995,0,4.266,4.2686,4.2744,4.2772,4.2785,4.2812,4.2844,4.2869,4.2895,4.2901,4.2923,4.2923,4.2961,4.2937,4.2993,4.2965,4.2984,4.2994,4.2997,4.3002,4.2975,4.3026,4.3106,4.3116,4.3008,4.3007,4.3006,0,4.2697,4.2747,4.2789,4.2803,4.2835,4.2855,4.287,4.2894,4.2914,4.2943,4.2957,4.2989,4.3007,4.3033,4.3043,4.3024,4.31,4.3075,4.3108,4.3109,4.3125,4.3124,4.3212,4.3133,4.3133,4.3133,4.3133,0,4.2753,4.2789,4.2807,4.2833,4.2876,4.2883,4.2926,4.2939,4.2962,4.2993,4.2992,4.3021,4.3031,4.3064,4.3072,4.3119,4.3126,4.3135,4.3137,4.3136,4.3136,4.315,4.3147,4.3135,4.3135,4.3134,4.3134,0,4.2801,4.2814,4.2861,4.2889,4.2898,4.2928,4.2953,4.2981,4.2992,4.3032,4.3042,4.3061,4.3099,4.3112,4.3157,4.3163,4.322,4.3217,4.3212,4.3213,4.3247,4.3245,4.3348,4.3364,4.3273,4.3273,4.3274,0,4.2836,4.2865,4.2898,4.2919,4.2935,4.2968,4.2991,4.3001,4.3024,4.3059,4.3083,4.3121,4.3152,4.3215,4.3233,4.327,4.327,4.3304,4.3275,4.3276,4.3275,4.3274,4.3279,4.3309,4.331,4.3311,4.3311,0,4.2899,4.2906,4.2937,4.2973,4.2999,4.3027,4.3054,4.3072,4.3087,4.3114,4.3154,4.3179,4.3228,4.3267,4.3306,4.3323,4.3322,4.3321,4.3331,4.3332,4.3329,4.3335,4.3229,4.3318,4.3318,4.3317,4.3317,4.3316,4.2944,4.2972,4.3001,4.3038,4.306,4.3087,4.3116,4.3133,4.3167,4.3208,4.3212,4.3257,4.3287,4.3339,4.3359,4.3395,4.3386,4.34,4.3404,4.3408,4.3413,4.3322,4.3402,4.3402,4.3401,4.3401,4.3401,0,4.301,4.303,4.3064,4.3104,4.3134,4.3131,4.3163,4.3188,4.3228,4.3256,4.3289,4.3338,4.3378,4.3402,4.3443,4.3468,4.3469,4.3479,4.3478,4.3483,4.3416,4.3405,4.3478,4.3478,4.3478,4.3478,4.3478,4.3478,4.3048,4.3096,4.3107,4.3168,4.3188,4.3232,4.3251,4.3278,4.3302,4.3357,4.3391,4.3406,4.3435,4.3479,4.3517,4.3523,4.354,4.3551,4.3557,4.3495,4.3487,4.3479,4.3469,4.3554,4.3554,4.3621,4.3622,4.3622]},{"header":{"parameterUnit":"m.s-1","parameterCategory":1,"la1":30.2991,"la2":30.254,"lo1":-89.0895,"lo2":-89.0444,"dy":0.0017,"dx":0.0017,"nx":28,"ny":28,"refTime":"2024-02-23T09:00:00:Z","depth":0,"parameterNumber":3,"parameterNumberName":"V-component_of_WINDS"},"data":[0,0,0,0,0,0,0,0,0,0,0,0,0,0,0,0,0,0,0,0,0,0,0,0,0,0,0,0,0,0,0,0,0,0,0,0,0,0,0,0,0,0,0,0,0,0,0,0,0,0,0,0,0,0,0,0,0,0,-1.7215,-1.7213,0,-1.7025,-1.7023,-1.702,-1.7044,-1.7047,-1.705,-1.7053,-1.6848,-1.684,-1.6832,0,0,0,0,0,0,0,0,0,0,0,0,0,-1.759,-1.7583,-1.7215,-1.7213,-1.721,-1.7025,-1.7022,-1.702,-1.7043,-1.7047,-1.7051,-1.7054,-1.6851,-1.6841,-1.6831,0,0,0,0,0,0,0,0,0,0,0,0,0,-1.7416,-1.7581,-1.7215,-1.72,-1.7197,-1.7026,-1.7022,-1.7019,-1.7042,-1.7047,-1.7052,-1.7056,-1.6854,-1.6842,-1.6829,-1.6658,0,0,-1.6791,-1.6786,0,0,0,0,0,0,0,0,-1.7426,-1.7402,-1.7204,-1.7201,-1.7197,-1.7063,-1.708,-1.6898,-1.7041,-1.7101,-1.7053,-1.7058,-1.6915,-1.6898,-1.6851,-1.6649,-1.664,-1.679,-1.6782,-1.6777,-1.6773,0,0,0,0,0,0,0,-1.7438,-1.741,-1.7139,-1.7202,-1.7197,-1.72,-1.718,-1.7045,-1.6983,-1.7096,-1.7097,-1.7075,-1.6914,-1.6864,-1.6847,-1.6637,-1.679,-1.6779,-1.6771,-1.6766,-1.6286,-1.6281,0,0,0,0,0,0,-1.7455,-1.742,-1.7145,-1.7134,-1.7325,-1.7189,-1.7167,-1.7101,-1.6985,-1.6972,-1.7071,-1.7077,-1.6883,-1.6861,-1.684,-1.6633,-1.6777,-1.6765,-1.6758,-1.6291,-1.6285,-1.6279,0,0,0,0,0,0,-1.7463,-1.743,-1.7153,-1.7277,-1.7242,-1.7178,-1.7103,-1.7095,-1.7045,-1.6967,-1.6955,-1.7032,-1.6885,-1.6857,-1.6704,-1.6626,-1.676,-1.6748,-1.6297,-1.6289,-1.6282,-1.6217,0,0,0,0,0,0,-1.7474,-1.7433,-1.7369,-1.7276,-1.7236,-1.7023,-1.7098,-1.7088,-1.7024,-1.703,-1.6927,-1.6914,-1.6887,-1.6723,-1.6692,-1.6611,-1.6738,-1.6304,-1.6294,-1.6284,-1.6226,-1.6208,-1.6192,0,0,0,0,0,-1.7487,-1.7356,-1.7366,-1.7332,-1.7155,-1.7018,-1.6995,-1.697,-1.7018,-1.6952,-1.6902,-1.6917,-1.664,-1.6707,-1.6672,-1.6586,-1.6309,-1.6297,-1.6285,-1.6233,-1.6211,-1.6193,0,0,0,0,0,0,-1.7437,-1.7343,-1.7353,-1.7188,-1.7112,-1.7023,-1.6939,-1.6947,-1.6853,-1.6861,-1.6831,-1.6807,-1.6653,-1.6604,-1.6681,-1.6416,-1.6481,-1.6461,-1.6453,-1.6431,-1.6415,-1.6429,-1.6728,0,0,0,0,0,-1.7408,-1.7308,-1.723,-1.7092,-1.7054,-1.7003,-1.6942,-1.693,-1.6848,-1.6815,-1.6754,-1.6671,-1.6565,-1.6496,-1.6394,-1.622,-1.6197,-1.6143,-1.6127,-1.6114,-1.6097,-1.6001,-1.5977,-1.624,-1.624,-1.6241,0,0,-1.7344,-1.7281,-1.7218,-1.708,-1.702,-1.6915,-1.6975,-1.6861,-1.6782,-1.6796,-1.6649,-1.6602,-1.6507,-1.6343,-1.6267,-1.6297,-1.6019,-1.6099,-1.6089,-1.6078,-1.5987,-1.5962,-1.594,-1.6232,-1.6234,-1.6235,0,0,-1.7175,-1.7117,-1.6997,-1.6936,-1.6845,-1.6813,-1.6784,-1.6694,-1.6664,-1.6517,-1.6527,-1.6431,-1.6249,-1.6182,-1.6124,-1.5934,-1.5943,-1.5901,-1.5813,-1.5721,-1.57,-1.5681,-1.5613,-1.5589,-1.5885,-1.5885,-1.5884,0,-1.7106,-1.6951,-1.6933,-1.6818,-1.6757,-1.677,-1.6647,-1.6587,-1.6466,-1.6422,-1.6459,-1.6234,-1.617,-1.5991,-1.5946,-1.5898,-1.5863,-1.5912,-1.5705,-1.5686,-1.5668,-1.5603,-1.5577,-1.588,-1.5881,-1.5881,-1.5881,0,-1.6872,-1.6764,-1.6677,-1.6565,-1.6494,-1.6375,-1.6336,-1.6266,-1.6261,-1.6224,-1.6074,-1.6,-1.5885,-1.5842,-1.5833,-1.5661,-1.5683,-1.5713,-1.5777,-1.5639,-1.5577,-1.5552,-1.5873,-1.5875,-1.5876,-1.5878,0,0,-1.6662,-1.6545,-1.6512,-1.6462,-1.6364,-1.6279,-1.6161,-1.6053,-1.5993,-1.5909,-1.5808,-1.5657,-1.5685,-1.5619,-1.5604,-1.5523,-1.5377,-1.5562,-1.5559,-1.553,-1.5182,-1.516,-1.5131,-1.5384,-1.5379,-1.5375,-1.519,0,-1.6483,-1.6278,-1.6259,-1.6074,-1.5974,-1.5987,-1.5884,-1.5811,-1.5775,-1.5683,-1.5641,-1.5534,-1.5579,-1.554,-1.546,-1.5411,-1.5306,-1.5424,-1.5287,-1.5283,-1.531,-1.5099,-1.5074,-1.4903,-1.5166,-1.5162,-1.5159,0,-1.6246,-1.6161,-1.5967,-1.5885,-1.5842,-1.5751,-1.565,-1.5563,-1.5481,-1.546,-1.5389,-1.5385,-1.5261,-1.5333,-1.5162,-1.5243,-1.5186,-1.5153,-1.5146,-1.5131,-1.5211,-1.5077,-1.4848,-1.4822,-1.512,-1.5123,-1.5126,0,-1.6112,-1.5948,-1.5812,-1.5769,-1.567,-1.5605,-1.556,-1.5484,-1.542,-1.5331,-1.529,-1.5186,-1.5129,-1.5049,-1.5017,-1.5072,-1.4847,-1.4915,-1.4824,-1.4825,-1.4774,-1.4778,-1.4532,-1.474,-1.474,-1.4741,-1.4741,0,-1.5913,-1.5794,-1.5751,-1.5667,-1.5533,-1.5512,-1.538,-1.5338,-1.527,-1.5176,-1.518,-1.5091,-1.5056,-1.496,-1.4934,-1.4797,-1.4771,-1.4749,-1.4743,-1.4748,-1.475,-1.4709,-1.4719,-1.4734,-1.4735,-1.4737,-1.4738,0,-1.574,-1.5707,-1.5559,-1.548,-1.5457,-1.5362,-1.5293,-1.521,-1.5177,-1.5058,-1.5029,-1.4974,-1.4863,-1.4825,-1.4688,-1.4671,-1.4511,-1.4515,-1.4539,-1.4538,-1.4449,-1.4458,-1.4167,-1.4127,-1.4362,-1.436,-1.4358,0,-1.5615,-1.5524,-1.5437,-1.5377,-1.5331,-1.5232,-1.5169,-1.5145,-1.5078,-1.498,-1.4909,-1.48,-1.4711,-1.4532,-1.4479,-1.4375,-1.4376,-1.4282,-1.436,-1.4369,-1.4374,-1.438,-1.437,-1.4266,-1.4264,-1.4262,-1.426,0,-1.5396,-1.5385,-1.5295,-1.52,-1.5126,-1.5048,-1.4973,-1.4923,-1.4887,-1.4812,-1.4701,-1.4632,-1.4496,-1.4387,-1.4281,-1.4233,-1.4239,-1.4237,-1.421,-1.4213,-1.4231,-1.422,-1.4498,-1.4243,-1.4244,-1.4246,-1.4247,-1.4247,-1.5242,-1.5163,-1.509,-1.499,-1.4933,-1.4864,-1.4783,-1.4742,-1.4649,-1.4539,-1.453,-1.441,-1.4331,-1.4191,-1.4138,-1.4042,-1.4068,-1.4029,-1.4019,-1.4009,-1.4003,-1.4248,-1.4022,-1.4023,-1.4023,-1.4024,-1.4024,0,-1.5023,-1.4978,-1.4887,-1.4785,-1.4706,-1.4725,-1.4643,-1.4575,-1.4471,-1.4399,-1.4313,-1.4185,-1.4081,-1.4021,-1.3915,-1.385,-1.3851,-1.3823,-1.3827,-1.3816,-1.3986,-1.4019,-1.3825,-1.3825,-1.3825,-1.3825,-1.3825,-1.3825,-1.4899,-1.4767,-1.4748,-1.4586,-1.4541,-1.4427,-1.4379,-1.4314,-1.4257,-1.4116,-1.4031,-1.3994,-1.3926,-1.3817,-1.3721,-1.3706,-1.3667,-1.3636,-1.3623,-1.3783,-1.3803,-1.3823,-1.3854,-1.3628,-1.3628,-1.3461,-1.346,-1.3459]}]]